Time,TemperatureF,DewpointF,PressureIn,WindDirection,WindDirectionDegrees,WindSpeedMPH,WindSpeedGustMPH,Humidity,HourlyPrecipIn,Conditions,Clouds,dailyrainin,SoftwareType,DateUTC
2013-04-26 01:32:00,52.0,36.0,-100.00,SSE,160,10.0,15.0,55,0.00,,,-99.99,,2013-04-26 06:32:00,
2013-04-26 01:42:00,52.0,36.0,-100.00,SSE,160,10.0,15.0,55,0.00,,,-99.99,,2013-04-26 06:42:00,
2013-04-26 01:52:00,51.0,37.0,-100.00,SSE,150,7.0,13.0,57,0.00,,,-99.99,,2013-04-26 06:52:00,
2013-04-26 02:01:00,51.0,37.0,-100.00,SSE,150,7.0,13.0,57,0.00,,,-99.99,,2013-04-26 07:01:00,
2013-04-26 02:11:00,51.0,37.0,-100.00,SSE,155,9.0,12.0,58,0.00,,,-99.99,,2013-04-26 07:11:00,
2013-04-26 02:22:00,51.0,38.0,-100.00,SSE,150,10.0,14.0,58,0.00,,,-99.99,,2013-04-26 07:22:00,
2013-04-26 02:31:00,52.0,38.0,-100.00,SSE,160,9.0,16.0,59,0.00,,,-99.99,,2013-04-26 07:31:00,
2013-04-26 02:42:00,52.0,38.0,-100.00,SSE,160,9.0,16.0,59,0.00,,,-99.99,,2013-04-26 07:42:00,
2013-04-26 02:52:00,52.0,38.0,-100.00,South,170,9.0,13.0,60,0.00,,,-99.99,,2013-04-26 07:52:00,
2013-04-26 03:02:00,52.0,38.0,-100.00,South,170,9.0,13.0,60,0.00,,,-99.99,,2013-04-26 08:02:00,
2013-04-26 03:11:00,52.0,39.0,-100.00,SSE,165,9.0,13.0,60,0.00,,,-99.99,,2013-04-26 08:11:00,
2013-04-26 03:21:00,52.0,39.0,-100.00,SSE,160,10.0,14.0,61,0.00,,,-99.99,,2013-04-26 08:21:00,
2013-04-26 03:32:00,52.0,39.0,-100.00,SSE,160,12.0,15.0,62,0.00,,,-99.99,,2013-04-26 08:32:00,
2013-04-26 03:42:00,52.0,39.0,-100.00,SSE,160,12.0,15.0,62,0.00,,,-99.99,,2013-04-26 08:42:00,
2013-04-26 03:51:00,52.0,40.0,-100.00,SSE,160,11.0,16.0,63,0.00,,,-99.99,,2013-04-26 08:51:00,
2013-04-26 04:01:00,52.0,40.0,-100.00,SSE,160,11.0,16.0,63,0.00,,,-99.99,,2013-04-26 09:01:00,
2013-04-26 04:11:00,52.0,40.0,-100.00,SSE,155,9.0,14.0,63,0.00,,,-99.99,,2013-04-26 09:11:00,
2013-04-26 04:21:00,52.0,40.0,-100.00,SSE,155,10.0,14.0,63,0.00,,,-99.99,,2013-04-26 09:21:00,
2013-04-26 04:33:00,52.0,40.0,-100.00,SSE,155,11.0,16.0,63,0.00,,,-99.99,,2013-04-26 09:33:00,
2013-04-26 04:42:00,52.0,40.0,-100.00,SSE,155,11.0,16.0,63,0.00,,,-99.99,,2013-04-26 09:42:00,
2013-04-26 04:53:00,51.0,40.0,-100.00,SSE,155,12.0,16.0,64,0.00,,,-99.99,,2013-04-26 09:53:00,
2013-04-26 05:03:00,51.0,40.0,-100.00,SSE,155,12.0,16.0,64,0.00,,,-99.99,,2013-04-26 10:03:00,
2013-04-26 05:12:00,51.0,40.0,-100.00,SSE,160,11.0,15.0,64,0.00,,,-99.99,,2013-04-26 10:12:00,
2013-04-26 05:23:00,51.0,40.0,-100.00,SSE,160,12.0,14.0,65,0.00,,,-99.99,,2013-04-26 10:23:00,
2013-04-26 05:33:00,50.0,40.0,-100.00,SSE,155,10.0,15.0,66,0.00,,,-99.99,,2013-04-26 10:33:00,
2013-04-26 05:42:00,50.0,40.0,-100.00,SSE,155,10.0,15.0,66,0.00,,,-99.99,,2013-04-26 10:42:00,
2013-04-26 05:52:00,50.0,39.0,-100.00,SSE,155,9.0,14.0,67,0.00,,,-99.99,,2013-04-26 10:52:00,
2013-04-26 06:02:00,50.0,39.0,-100.00,SSE,155,9.0,14.0,67,0.00,,,-99.99,,2013-04-26 11:02:00,
2013-04-26 06:11:00,49.0,39.0,-100.00,SSE,155,10.0,14.0,68,0.00,,,-99.99,,2013-04-26 11:11:00,
2013-04-26 06:22:00,49.0,39.0,-100.00,SSE,150,10.0,13.0,68,0.00,,,-99.99,,2013-04-26 11:22:00,
2013-04-26 06:32:00,49.0,39.0,-100.00,SSE,160,9.0,12.0,69,0.00,,,-99.99,,2013-04-26 11:32:00,
2013-04-26 06:41:00,49.0,39.0,-100.00,SSE,160,9.0,12.0,69,0.00,,,-99.99,,2013-04-26 11:41:00,
2013-04-26 06:52:00,49.0,40.0,-100.00,SSE,160,9.0,13.0,69,0.00,,,-99.99,,2013-04-26 11:52:00,
2013-04-26 07:01:00,49.0,40.0,-100.00,SSE,160,9.0,13.0,69,0.00,,,-99.99,,2013-04-26 12:01:00,
2013-04-26 07:11:00,50.0,40.0,-100.00,SSE,165,9.0,12.0,69,0.00,,,-99.99,,2013-04-26 12:11:00,
2013-04-26 07:21:00,50.0,40.0,-100.00,SSE,165,9.0,13.0,68,0.00,,,-99.99,,2013-04-26 12:21:00,
2013-04-26 07:32:00,51.0,40.0,-100.00,South,175,11.0,14.0,66,0.00,,,-99.99,,2013-04-26 12:32:00,
2013-04-26 07:41:00,51.0,40.0,-100.00,South,175,11.0,14.0,66,0.00,,,-99.99,,2013-04-26 12:41:00,
2013-04-26 07:52:00,52.0,41.0,-100.00,South,180,12.0,17.0,65,0.00,,,-99.99,,2013-04-26 12:52:00,
2013-04-26 08:01:00,52.0,41.0,-100.00,South,180,12.0,17.0,65,0.00,,,-99.99,,2013-04-26 13:01:00,
2013-04-26 08:11:00,53.0,41.0,-100.00,South,185,10.0,16.0,65,0.00,,,-99.99,,2013-04-26 13:11:00,
2013-04-26 08:21:00,54.0,42.0,-100.00,South,180,16.0,20.0,63,0.00,,,-99.99,,2013-04-26 13:21:00,
2013-04-26 08:31:00,55.0,42.0,-100.00,South,180,15.0,22.0,61,0.00,,,-99.99,,2013-04-26 13:31:00,
2013-04-26 08:41:00,55.0,42.0,-100.00,South,180,15.0,22.0,61,0.00,,,-99.99,,2013-04-26 13:41:00,
2013-04-26 08:52:00,56.0,43.0,-100.00,South,190,14.0,22.0,60,0.00,,,-99.99,,2013-04-26 13:52:00,
2013-04-26 09:01:00,56.0,43.0,-100.00,South,190,14.0,22.0,60,0.00,,,-99.99,,2013-04-26 14:01:00,
2013-04-26 09:11:00,57.0,44.0,-100.00,SSW,200,16.0,21.0,60,0.00,,,-99.99,,2013-04-26 14:11:00,
2013-04-26 09:21:00,58.0,44.0,-100.00,South,190,19.0,26.0,59,0.00,,,-99.99,,2013-04-26 14:21:00,
2013-04-26 09:32:00,59.0,44.0,-100.00,South,185,18.0,26.0,57,0.00,,,-99.99,,2013-04-26 14:32:00,
2013-04-26 09:41:00,59.0,44.0,-100.00,South,185,18.0,26.0,57,0.00,,,-99.99,,2013-04-26 14:41:00,
2013-04-26 09:51:00,62.0,45.0,-100.00,SSW,195,21.0,28.0,54,0.00,,,-99.99,,2013-04-26 14:51:00,
2013-04-26 10:01:00,62.0,45.0,-100.00,SSW,195,21.0,28.0,54,0.00,,,-99.99,,2013-04-26 15:01:00,
2013-04-26 10:12:00,62.0,45.0,-100.00,SSW,195,21.0,32.0,53,0.00,,,-99.99,,2013-04-26 15:12:00,
2013-04-26 10:21:00,62.0,44.0,-100.00,South,185,24.0,30.0,53,0.00,,,-99.99,,2013-04-26 15:21:00,
2013-04-26 10:33:00,62.0,45.0,-100.00,South,185,21.0,32.0,53,0.00,,,-99.99,,2013-04-26 15:33:00,
2013-04-26 10:42:00,62.0,45.0,-100.00,South,185,21.0,32.0,53,0.00,,,-99.99,,2013-04-26 15:42:00,
2013-04-26 10:53:00,62.0,46.0,-100.00,SSW,195,20.0,30.0,54,0.00,,,-99.99,,2013-04-26 15:53:00,
2013-04-26 11:03:00,62.0,46.0,-100.00,SSW,195,20.0,30.0,54,0.00,,,-99.99,,2013-04-26 16:03:00,
2013-04-26 11:12:00,62.0,46.0,-100.00,SSW,195,23.0,32.0,54,0.00,,,-99.99,,2013-04-26 16:12:00,
2013-04-26 11:23:00,62.0,46.0,-100.00,SSW,195,19.0,33.0,55,0.00,,,-99.99,,2013-04-26 16:23:00,
2013-04-26 11:33:00,63.0,47.0,-100.00,South,190,23.0,32.0,55,0.00,,,-99.99,,2013-04-26 16:33:00,
2013-04-26 11:42:00,63.0,47.0,-100.00,South,190,23.0,32.0,55,0.00,,,-99.99,,2013-04-26 16:42:00,
2013-04-26 11:52:00,63.0,47.0,-100.00,South,190,22.0,28.0,55,0.00,,,-99.99,,2013-04-26 16:52:00,
2013-04-26 12:02:00,63.0,47.0,-100.00,South,190,22.0,28.0,55,0.00,,,-99.99,,2013-04-26 17:02:00,
2013-04-26 12:12:00,65.0,49.0,-100.00,SSW,195,20.0,31.0,55,0.00,,,-99.99,,2013-04-26 17:12:00,
2013-04-26 12:21:00,65.0,48.0,-100.00,South,185,22.0,29.0,54,0.00,,,-99.99,,2013-04-26 17:21:00,
2013-04-26 12:31:00,66.0,49.0,-100.00,South,175,21.0,32.0,54,0.00,,,-99.99,,2013-04-26 17:31:00,
2013-04-26 12:41:00,66.0,49.0,-100.00,South,175,21.0,32.0,54,0.00,,,-99.99,,2013-04-26 17:41:00,
2013-04-26 12:51:00,65.0,48.0,-100.00,SSW,205,21.0,30.0,54,0.00,,,-99.99,,2013-04-26 17:51:00,
2013-04-26 13:02:00,65.0,48.0,-100.00,SSW,205,21.0,30.0,54,0.00,,,-99.99,,2013-04-26 18:02:00,
2013-04-26 13:11:00,64.0,47.0,-100.00,SSW,195,22.0,30.0,54,0.00,,,-99.99,,2013-04-26 18:11:00,
2013-04-26 13:22:00,64.0,47.0,-100.00,SSW,195,22.0,30.0,54,0.00,,,-99.99,,2013-04-26 18:22:00,
2013-04-26 13:33:00,63.0,47.0,-100.00,South,190,17.0,27.0,53,0.00,,,-99.99,,2013-04-26 18:33:00,
2013-04-26 13:41:00,63.0,47.0,-100.00,South,190,17.0,27.0,53,0.00,,,-99.99,,2013-04-26 18:41:00,
2013-04-26 13:52:00,64.0,47.0,-100.00,South,175,16.0,22.0,53,0.00,,,-99.99,,2013-04-26 18:52:00,
2013-04-26 14:01:00,64.0,47.0,-100.00,South,175,16.0,22.0,53,0.00,,,-99.99,,2013-04-26 19:01:00,
2013-04-26 14:11:00,66.0,49.0,-100.00,SSW,195,18.0,23.0,53,0.00,,,-99.99,,2013-04-26 19:11:00,
2013-04-26 14:22:00,65.0,48.0,-100.00,SW,215,18.0,28.0,54,0.00,,,-99.99,,2013-04-26 19:22:00,
2013-04-26 14:32:00,65.0,49.0,-100.00,SSW,200,17.0,28.0,56,0.00,,,-99.99,,2013-04-26 19:32:00,
2013-04-26 14:41:00,65.0,49.0,-100.00,SSW,200,17.0,28.0,56,0.00,,,-99.99,,2013-04-26 19:41:00,
2013-04-26 14:52:00,66.0,50.0,-100.00,South,180,17.0,24.0,56,0.00,,,-99.99,,2013-04-26 19:52:00,
2013-04-26 15:02:00,66.0,50.0,-100.00,South,180,17.0,24.0,56,0.00,,,-99.99,,2013-04-26 20:02:00,
2013-04-26 15:11:00,63.0,49.0,-100.00,SSW,195,16.0,24.0,58,0.00,,,-99.99,,2013-04-26 20:11:00,
2013-04-26 15:21:00,63.0,49.0,-100.00,SSW,195,12.0,24.0,59,0.00,,,-99.99,,2013-04-26 20:21:00,
2013-04-26 15:32:00,65.0,50.0,-100.00,SW,220,12.0,19.0,58,0.00,,,-99.99,,2013-04-26 20:32:00,
2013-04-26 15:42:00,65.0,50.0,-100.00,SW,220,12.0,19.0,58,0.00,,,-99.99,,2013-04-26 20:42:00,
2013-04-26 15:51:00,64.0,50.0,-100.00,SSW,205,11.0,19.0,58,0.00,,,-99.99,,2013-04-26 20:51:00,
2013-04-26 16:01:00,64.0,50.0,-100.00,SSW,205,11.0,19.0,58,0.00,,,-99.99,,2013-04-26 21:01:00,
2013-04-26 16:11:00,65.0,50.0,-100.00,SW,215,14.0,19.0,58,0.00,,,-99.99,,2013-04-26 21:11:00,
2013-04-26 16:21:00,64.0,49.0,-100.00,SSW,195,12.0,19.0,58,0.00,,,-99.99,,2013-04-26 21:21:00,
2013-04-26 16:33:00,64.0,50.0,-100.00,SSW,200,13.0,18.0,59,0.00,,,-99.99,,2013-04-26 21:33:00,
2013-04-26 16:42:00,64.0,50.0,-100.00,SSW,200,13.0,18.0,59,0.00,,,-99.99,,2013-04-26 21:42:00,
2013-04-26 16:52:00,64.0,50.0,-100.00,South,180,14.0,19.0,59,0.00,,,-99.99,,2013-04-26 21:52:00,
2013-04-26 17:02:00,64.0,50.0,-100.00,South,180,14.0,19.0,59,0.00,,,-99.99,,2013-04-26 22:02:00,
2013-04-26 17:12:00,63.0,50.0,-100.00,SSW,195,15.0,21.0,61,0.00,,,-99.99,,2013-04-26 22:12:00,
2013-04-26 17:23:00,63.0,50.0,-100.00,SSW,205,11.0,19.0,61,0.00,,,-99.99,,2013-04-26 22:23:00,
2013-04-26 17:33:00,63.0,50.0,-100.00,SSW,210,13.0,19.0,62,0.00,,,-99.99,,2013-04-26 22:33:00,
2013-04-26 17:42:00,63.0,50.0,-100.00,SSW,210,13.0,19.0,62,0.00,,,-99.99,,2013-04-26 22:42:00,
2013-04-26 17:52:00,62.0,50.0,-100.00,South,185,17.0,24.0,64,0.00,,,-99.99,,2013-04-26 22:52:00,
2013-04-26 18:02:00,62.0,50.0,-100.00,South,185,17.0,24.0,64,0.00,,,-99.99,,2013-04-26 23:02:00,
2013-04-26 18:11:00,63.0,51.0,-100.00,SW,225,16.0,23.0,63,0.00,,,-99.99,,2013-04-26 23:11:00,
2013-04-26 18:21:00,63.0,50.0,-100.00,SW,215,17.0,21.0,62,0.00,,,-99.99,,2013-04-26 23:21:00,
2013-04-26 18:32:00,62.0,49.0,-100.00,SSW,205,12.0,18.0,64,0.00,,,-99.99,,2013-04-26 23:32:00,
2013-04-26 18:42:00,62.0,49.0,-100.00,SSW,205,12.0,18.0,64,0.00,,,-99.99,,2013-04-26 23:42:00,
2013-04-26 18:52:00,61.0,50.0,-100.00,South,185,12.0,19.0,66,0.00,,,-99.99,,2013-04-26 23:52:00,
2013-04-26 19:01:00,61.0,50.0,-100.00,South,185,12.0,19.0,66,0.00,,,-99.99,,2013-04-27 00:01:00,
2013-04-26 19:11:00,61.0,50.0,-100.00,South,190,17.0,20.0,66,0.00,,,-99.99,,2013-04-27 00:11:00,
2013-04-26 19:21:00,60.0,50.0,-100.00,South,190,15.0,20.0,67,0.00,,,-99.99,,2013-04-27 00:21:00,
2013-04-26 19:32:00,60.0,50.0,-100.00,South,170,11.0,19.0,69,0.00,,,-99.99,,2013-04-27 00:32:00,
2013-04-26 19:41:00,60.0,50.0,-100.00,South,170,11.0,19.0,69,0.00,,,-99.99,,2013-04-27 00:41:00,
2013-04-26 19:51:00,59.0,50.0,-100.00,SSW,200,12.0,16.0,71,0.00,,,-99.99,,2013-04-27 00:51:00,
2013-04-26 20:01:00,59.0,50.0,-100.00,SSW,200,12.0,16.0,71,0.00,,,-99.99,,2013-04-27 01:01:00,
2013-04-26 20:12:00,58.0,49.0,-100.00,South,175,10.0,16.0,72,0.00,,,-99.99,,2013-04-27 01:12:00,
2013-04-26 20:21:00,58.0,50.0,-100.00,South,180,11.0,14.0,73,0.00,,,-99.99,,2013-04-27 01:21:00,
2013-04-26 20:32:00,57.0,50.0,-100.00,South,190,9.0,14.0,75,0.00,,,-99.99,,2013-04-27 01:32:00,
2013-04-26 20:42:00,57.0,50.0,-100.00,South,190,11.0,13.0,77,0.00,,,-99.99,,2013-04-27 01:42:00,
2013-04-26 20:52:00,56.0,50.0,-100.00,South,185,10.0,17.0,79,0.00,,,-99.99,,2013-04-27 01:52:00,
2013-04-26 21:01:00,56.0,50.0,-100.00,South,185,10.0,17.0,79,0.00,,,-99.99,,2013-04-27 02:01:00,
2013-04-26 21:11:00,56.0,49.0,-100.00,SSW,195,11.0,16.0,79,0.00,,,-99.99,,2013-04-27 02:11:00,
2013-04-26 21:22:00,56.0,50.0,-100.00,South,190,12.0,15.0,80,0.00,,,-99.99,,2013-04-27 02:22:00,
2013-04-26 21:32:00,55.0,49.0,-100.00,South,185,9.0,15.0,80,0.00,,,-99.99,,2013-04-27 02:32:00,
2013-04-26 21:42:00,55.0,49.0,-100.00,South,185,9.0,15.0,80,0.00,,,-99.99,,2013-04-27 02:42:00,
2013-04-26 21:52:00,54.0,49.0,-100.00,South,190,8.0,11.0,82,0.00,,,-99.99,,2013-04-27 02:52:00,
2013-04-26 22:02:00,54.0,49.0,-100.00,South,190,8.0,11.0,82,0.00,,,-99.99,,2013-04-27 03:02:00,
2013-04-26 22:11:00,54.0,49.0,-100.00,South,180,11.0,12.0,83,0.00,,,-99.99,,2013-04-27 03:11:00,
2013-04-26 22:22:00,54.0,49.0,-100.00,South,180,9.0,13.0,83,0.00,,,-99.99,,2013-04-27 03:22:00,
2013-04-26 22:33:00,53.0,49.0,-100.00,South,180,7.0,11.0,85,0.00,,,-99.99,,2013-04-27 03:33:00,
2013-04-26 22:42:00,53.0,49.0,-100.00,South,180,7.0,11.0,85,0.00,,,-99.99,,2013-04-27 03:42:00,
2013-04-26 22:52:00,53.0,48.0,-100.00,SSE,165,6.0,9.0,85,0.00,,,-99.99,,2013-04-27 03:52:00,
2013-04-26 23:02:00,53.0,48.0,-100.00,SSE,165,6.0,9.0,85,0.00,,,-99.99,,2013-04-27 04:02:00,
2013-04-26 23:12:00,52.0,48.0,-100.00,South,185,6.0,7.0,86,0.00,,,-99.99,,2013-04-27 04:12:00,
2013-04-26 23:22:00,52.0,48.0,-100.00,South,170,6.0,7.0,87,0.00,,,-99.99,,2013-04-27 04:22:00,
2013-04-26 23:33:00,51.0,48.0,-100.00,South,170,6.0,9.0,88,0.00,,,-99.99,,2013-04-27 04:33:00,
2013-04-26 23:43:00,51.0,48.0,-100.00,South,170,6.0,9.0,88,0.00,,,-99.99,,2013-04-27 04:43:00,
2013-04-26 23:52:00,51.0,48.0,-100.00,South,175,6.0,8.0,88,0.00,,,-99.99,,2013-04-27 04:52:00,